Theta_e
337 335 335 333 331 329 326 324 323 323 321 321 322 322 322 324 325 325 325 325 324 315 316 316 316 317 317 318 320 320 320 321
335 335 332 330 330 328 326 323 322 322 323 322 323 323 323 323 323 322 322 322 322 316 315 316 316 317 318 318 319 320 321 321
335 333 332 330 329 325 326 325 324 321 323 323 323 322 322 321 320 321 321 321 322 319 315 316 316 316 316 317 318 320 321 323
333 333 332 330 327 325 325 325 322 321 322 323 324 322 322 320 320 319 318 316 320 320 315 315 316 316 314 314 317 320 320 319
332 332 331 329 324 324 324 324 323 322 323 323 323 322 319 319 317 316 315 317 320 318 318 312 311 314 319 320 319 319 320 320
332 332 331 329 325 323 323 324 321 321 322 323 324 319 318 319 319 319 318 318 319 319 318 320 322 320 320 320 320 319 319 319
331 331 331 329 327 324 321 322 321 322 322 322 320 318 319 320 319 320 319 318 319 319 322 322 322 322 320 321 319 318 318 320
329 330 331 329 328 326 322 323 322 321 321 319 319 319 320 320 320 319 319 318 318 322 321 320 323 324 324 322 320 319 319 319
327 328 328 327 327 325 324 325 324 323 322 320 320 320 320 320 319 319 320 318 317 322 321 320 323 324 324 323 323 322 321 319
326 327 325 326 325 324 322 324 323 322 322 321 320 321 320 320 320 320 319 318 323 323 322 320 322 324 324 324 324 325 323 318
326 326 324 324 324 323 323 323 322 321 321 321 321 321 320 320 321 320 318 324 325 322 321 321 323 324 324 323 323 321 319 318
325 324 323 323 324 321 323 322 322 321 321 321 321 321 320 321 321 321 319 326 324 324 325 324 324 323 323 324 322 323 316 318
325 323 324 322 324 324 324 323 322 322 322 321 321 320 320 321 322 320 321 326 324 325 326 325 325 325 324 324 322 323 324 321
327 323 322 322 325 325 324 322 323 322 322 321 321 320 320 322 322 319 323 325 323 325 326 326 325 325 325 325 323 321 321 321
328 325 325 324 326 325 324 323 323 323 322 321 321 321 321 323 322 319 322 324 323 325 326 321 322 324 325 323 323 322 321 321
327 327 325 326 326 325 323 323 323 323 323 321 321 321 321 323 321 319 321 323 321 325 325 320 327 326 325 325 325 323 320 319
327 327 325 327 327 326 324 323 324 324 323 322 321 321 322 323 321 319 321 324 325 324 324 322 327 328 328 327 323 322 322 323
327 326 325 326 325 325 325 324 324 325 324 323 322 321 323 323 322 320 320 323 325 325 322 323 326 325 327 327 325 325 324 325
327 327 325 325 325 326 325 324 324 324 324 324 323 322 323 323 322 320 321 323 323 324 322 323 323 328 326 327 327 326 326 325
326 326 326 325 327 325 325 325 325 325 324 324 323 322 323 323 322 320 321 322 323 324 321 324 323 326 328 328 328 327 327 326
Wind_Speed
5 6 9 5 4 5 3 6 6 4 4 1 1 4 3 4 5 5 6 7 10 14 13 14 18 19 21 21 22 23 25 26
9 8 1 7 9 7 7 5 8 7 5 2 5 4 5 5 5 6 7 10 13 15 15 17 20 21 22 23 24 25 25 26
8 8 5 7 10 9 9 7 4 6 4 3 4 7 6 5 6 7 9 12 12 18 19 19 21 22 23 24 26 26 27 27
11 3 4 7 7 8 9 8 3 5 6 5 5 6 6 7 7 9 10 14 14 14 18 20 22 23 25 25 26 28 30 32
12 11 9 4 6 9 8 9 8 4 6 2 7 9 9 9 10 10 12 12 10 14 16 20 21 22 23 25 28 32 34 33
13 12 10 3 4 6 9 9 3 6 5 6 9 9 10 7 5 5 7 8 11 14 13 14 13 21 23 26 27 29 31 29
12 13 12 6 11 4 5 10 8 9 9 5 7 7 8 7 6 6 9 11 12 12 12 15 15 17 21 23 23 22 19 19
9 12 14 18 11 15 7 8 12 10 9 11 9 9 9 8 7 8 9 11 12 11 15 18 13 15 16 16 19 14 13 14
15 16 19 21 15 12 12 12 11 10 12 12 11 12 11 9 7 7 8 10 10 12 17 17 12 14 12 16 14 12 11 10
18 14 14 9 8 10 14 14 4 7 7 14 15 14 11 8 5 6 8 9 9 11 16 16 14 10 13 13 12 10 8 7
16 14 10 5 9 9 12 9 11 9 11 15 15 13 10 7 4 5 8 9 9 13 13 12 11 9 11 11 8 9 9 7
13 12 7 8 4 4 9 4 10 12 14 14 15 13 10 7 4 4 6 7 9 10 10 9 9 10 10 10 8 8 7 6
14 11 6 6 9 10 11 5 11 15 14 15 15 13 11 7 4 3 4 6 8 9 8 8 10 10 9 8 10 8 7 7
13 10 6 7 10 10 9 10 15 15 17 17 16 15 11 8 5 2 2 5 8 7 8 10 10 10 9 9 9 9 8 8
10 12 6 11 13 8 10 12 16 16 18 18 17 16 13 10 6 1 2 4 6 7 8 10 9 10 10 10 9 8 6 7
13 10 10 12 14 14 17 16 15 17 19 20 20 18 15 12 7 2 1 3 5 6 9 11 10 12 12 10 8 7 8 11
11 6 10 15 15 15 18 21 16 18 19 22 20 17 15 13 8 4 1 2 4 5 8 10 8 11 13 12 8 6 8 11
11 10 9 16 17 18 17 19 16 16 19 21 19 19 17 14 9 5 2 1 2 4 7 10 8 11 11 8 7 10 14 9
12 12 12 16 18 13 8 11 13 14 15 18 22 23 20 17 12 7 4 3 0 3 7 10 11 9 12 9 8 8 14 22
14 13 12 4 15 14 11 12 12 14 15 17 21 22 21 18 14 10 6 5 2 3 7 8 11 9 12 9 6 5 8 14
Wind_Direction
250 256 264 328 12 318 340 196 214 223 259 290 210 182 178 194 189 225 257 268 276 294 274 268 272 275 277 282 277 275 277 278
253 256 28 297 323 316 283 217 229 255 247 197 190 169 195 201 227 252 271 272 277 276 271 268 273 276 278 279 278 277 276 278
251 263 286 286 298 294 265 250 228 232 269 273 242 216 221 238 267 269 275 278 283 286 282 273 277 279 280 279 278 277 277 276
255 259 285 310 313 276 256 262 170 238 264 278 215 208 230 255 271 279 281 291 289 287 286 277 278 277 280 280 279 279 279 280
290 279 284 357 327 259 278 265 237 247 261 312 221 217 249 265 281 283 295 300 294 295 287 290 284 280 280 279 279 281 283 280
260 275 297 354 290 284 262 274 137 198 255 256 215 244 252 249 244 269 300 299 298 300 290 287 284 288 283 286 285 283 280 277
267 278 291 289 281 223 262 242 224 218 251 246 221 252 207 221 255 283 299 303 302 298 289 295 293 290 294 294 290 290 279 275
282 292 285 293 280 293 232 223 235 236 236 242 242 206 213 237 263 285 300 302 300 292 303 308 300 295 302 300 305 304 283 274
271 271 290 288 285 263 255 263 254 250 231 220 213 209 221 239 259 280 300 311 301 300 315 310 294 296 296 301 305 308 306 295
269 289 291 277 269 250 244 273 307 240 233 209 211 212 219 229 257 292 307 315 311 308 313 309 310 302 292 309 295 312 297 295
268 273 259 260 246 273 271 286 250 240 216 215 214 212 212 214 248 301 321 317 320 315 316 318 316 298 302 305 305 299 294 283
265 253 219 236 234 248 294 260 239 227 223 219 212 208 208 214 240 296 318 321 322 323 317 315 320 317 315 310 310 310 305 285
236 220 226 239 248 255 287 236 243 235 226 217 210 207 210 215 223 296 317 319 333 331 318 322 326 317 309 304 314 295 295 284
196 203 176 219 270 271 289 231 238 232 227 215 211 207 207 210 209 281 318 315 342 328 326 324 319 319 310 296 314 306 288 267
235 200 198 216 276 281 295 261 263 243 228 219 211 205 204 205 208 234 305 323 341 333 341 351 337 338 324 329 322 319 307 285
257 188 225 253 256 271 279 258 261 255 235 223 214 209 204 199 197 191 282 321 353 338 353 353 349 344 342 343 331 334 315 308
253 269 264 275 285 287 282 276 259 256 230 222 215 205 198 193 192 188 252 295 315 333 352 359 360 353 358 357 358 360 350 336
254 267 278 289 284 292 289 271 262 246 227 218 207 198 194 191 189 184 203 226 307 335 352 8 355 350 2 7 31 44 41 35
259 292 274 266 273 287 288 246 248 242 232 215 206 196 191 189 188 178 187 191 224 3 30 30 33 9 26 31 53 69 58 55
259 270 283 345 293 293 271 264 231 230 223 214 202 196 189 185 184 177 177 175 129 37 60 35 45 24 25 31 40 48 58 55